This is the latest recevied weather packets stored in our database for station/object N2RDT. If no packets are shown the sender has not sent any weather packets the latest 10 day(s).
| Time | Temp. | Humidity | Pressure | Rain* | Wind** | Luminosity | Snow |
|---|---|---|---|---|---|---|---|
| 1777169268 | 17.78° C | 95% | 1011.2 hPa | 0.51 mm | - | 0 W/m² | - |
| 1777168963 | 17.78° C | 95% | 1011.1 hPa | 0.51 mm | - | 0 W/m² | - |
| 1777168659 | 17.78° C | 95% | 1011.1 hPa | 0 mm | - | 0 W/m² | - |
| 1777168355 | 17.78° C | 95% | 1011.1 hPa | 0 mm | - | 0 W/m² | - |
| 1777168054 | 17.78° C | 95% | 1011.1 hPa | 0 mm | - | 0 W/m² | - |
| 1777167749 | 17.78° C | 95% | 1011.5 hPa | 0 mm | - | 0 W/m² | - |
| 1777167440 | 17.78° C | 95% | 1011.5 hPa | 0.51 mm | - | 0 W/m² | - |
| 1777167136 | 17.78° C | 95% | 1011.2 hPa | 0.51 mm | - | 0 W/m² | - |
| 1777166832 | 17.78° C | 95% | 1011.3 hPa | 0 mm | - | 0 W/m² | - |
| 1777166532 | 17.78° C | 95% | 1010.9 hPa | 0 mm | - | 0 W/m² | - |
| 1777166228 | 17.78° C | 95% | 1011 hPa | 0.51 mm | - | 0 W/m² | - |
| 1777165925 | 17.78° C | 95% | 1011 hPa | 1.27 mm | - | 0 W/m² | - |
| 1777165623 | 17.78° C | 95% | 1011.1 hPa | 1.78 mm | - | 0 W/m² | - |
| 1777165319 | 17.78° C | 95% | 1011.2 hPa | 1.27 mm | - | 0 W/m² | - |
| 1777165014 | 17.78° C | 95% | 1011.3 hPa | 1.27 mm | - | 0 W/m² | - |
| 1777164714 | 17.78° C | 94% | 1011.1 hPa | 1.78 mm | - | 0 W/m² | - |
| 1777164108 | 17.78° C | 94% | 1011.3 hPa | 1.78 mm | - | 0 W/m² | - |
| 1777163807 | 17.78° C | 94% | 1011.3 hPa | 1.78 mm | - | 0 W/m² | - |
| 1777163503 | 17.78° C | 93% | 1011.6 hPa | 3.05 mm | - | 0 W/m² | - |
| 1777163198 | 17.78° C | 93% | 1011.4 hPa | 4.32 mm | - | 0 W/m² | - |
| 1777162894 | 17.78° C | 93% | 1011.6 hPa | 4.83 mm | - | 0 W/m² | - |
| 1777162589 | 17.78° C | 92% | 1011.4 hPa | 3.56 mm | - | 0 W/m² | - |
| 1777162284 | 17.78° C | 92% | 1011.7 hPa | 3.05 mm | - | 0 W/m² | - |
* Rain latest hour (hover to see other rain measurements)
** Current wind speed in m/s (hover to see current wind gust speed)